#timestamp,LO_Frequency,Hit,StdDev 
1507190415.5,286047008.1,N
1507190435.3,286047010.1,N
1507190455.2,286047013.7,Y
1507190475.9,286047006.5,P
1507190495.7,286047009.1,P
1507190515.6,286047007.1,P
1507190535.4,286047005.0,N
1507190555.2,286047006.1,Y
1507190575.1,286047004.7,P
1507190576.0,286047004.7,P
1507190595.8,286047003.9,P
1507190615.6,286047002.6,N
1507190635.5,286047002.5,N
1507190655.3,286047003.2,N
1507190675.1,286047007.2,Y
1507190695.9,286046998.1,P
1507190715.7,286046997.5,N
1507190735.5,286046999.7,N
1507190755.4,286047000.3,N
1507190775.2,286047000.7,N
1507190795.0,286047002.5,N
1507190795.9,286047002.5,N
1507190815.7,286047001.8,N
1507190835.6,286047002.7,N
1507190855.4,286047001.6,N
1507190875.2,286047001.6,N
1507190895.1,286047000.8,N
1507190896.0,286047000.8,N
1507190915.8,286046999.2,N
1507190935.6,286046999.2,N
1507190955.5,286046997.3,N
1507190975.3,286046997.2,N
1507190995.1,286046996.7,N
1507191015.9,286046998.6,N
1507191035.7,286046998.7,N
1507191055.5,286047002.4,N
1507191075.4,286047000.5,N
1507191095.2,286047000.1,N
1507191115.0,286047001.0,N
1507191115.9,286047001.0,N
1507191135.8,286046995.5,N
1507191155.6,286046993.5,Y
1507191175.4,286046990.7,P
1507191195.3,286046994.7,N
1507191215.1,286046992.6,N
1507191216.0,286046992.6,N
1507191235.8,286046993.5,N
1507191255.7,286046994.2,N
1507191275.5,286046992.9,N
1507191295.3,286046992.6,N
1507191315.2,286046991.7,Y
1507191335.9,286047000.2,P
1507191355.7,286046999.1,N
1507191375.5,286046999.6,N
1507191395.4,286046996.7,N
1507191415.2,286046998.3,N
1507191435.0,286046996.8,N
1507191435.9,286046996.8,N
1507191455.8,286047001.2,N
1507191475.6,286046998.1,N
1507191495.4,286046994.9,N
1507191515.3,286046993.5,Y
1507191535.1,286046997.0,P
1507191555.8,286046998.8,P
1507191575.7,286047001.0,N
1507191595.5,286046999.5,N
1507191615.3,286046996.8,N
1507191635.2,286046995.1,Y
1507191655.9,286046998.3,P
1507191675.7,286046996.9,P
1507191695.6,286046995.2,P
1507191715.4,286046996.4,N
1507191735.2,286046992.7,Y
1507191755.1,286046994.9,P
1507191756.0,286046994.9,P
1507191775.8,286046997.9,N
1507191795.6,286046997.7,N
1507191815.5,286046998.5,N
1507191835.3,286046997.4,N
1507191855.1,286046997.5,N
1507191875.9,286046997.3,N
1507191895.7,286046998.1,N
1507191915.5,286046998.1,N
1507191935.3,286046999.2,N
1507191955.2,286046997.0,N
1507191975.0,286047001.1,N
1507191975.9,286047001.1,N
1507191995.7,286047000.6,N
1507192015.6,286047001.2,N
1507192035.4,286047000.8,N
1507192055.2,286046998.6,N
1507192075.1,286046999.2,N
1507192076.0,286046999.2,N
1507192095.8,286046999.4,N
1507192115.6,286046998.9,N
1507192135.5,286046996.3,N
1507192155.3,286046992.8,Y
1507192175.1,286046994.1,P
1507192195.9,286046994.3,N
1507192215.7,286046993.1,P
1507192235.5,286046995.1,N
1507192255.4,286046994.1,Y
1507192275.2,286047001.0,P
1507192295.0,286047003.0,N
1507192295.9,286047003.0,N
1507192315.8,286047005.0,N
1507192335.6,286047004.5,N
1507192355.4,286047001.5,N
1507192375.3,286046999.7,N
1507192395.1,286047000.7,N
1507192396.0,286047000.7,N
1507192415.8,286047004.1,N
1507192435.7,286047005.9,N
1507192455.5,286047005.7,N
1507192475.3,286047004.1,N
1507192495.1,286047005.5,N
1507192515.9,286047005.9,N
1507192535.7,286047001.9,N
1507192555.5,286047002.6,N
1507192575.4,286047003.9,N
1507192595.2,286047005.9,N
1507192615.0,286047004.2,N
1507192615.9,286047004.2,N
1507192635.8,286047003.7,N
1507192655.6,286047002.0,N
1507192675.4,286046998.8,N
1507192695.3,286047000.4,N
1507192715.1,286047005.0,N
1507192716.0,286047005.0,N
1507192735.8,286047003.6,N
1507192755.7,286047003.7,N
1507192775.5,286047002.2,N
1507192795.3,286047005.9,Y
1507192815.2,286047002.4,P
1507192835.9,286047001.9,P
1507192855.7,286047000.0,N
1507192875.6,286046998.1,N
1507192895.4,286047001.5,N
1507192915.2,286047001.4,N
1507192935.0,286047002.3,N
1507192935.9,286047002.3,N
1507192955.8,286046998.4,N
1507192975.6,286047001.0,N
1507192995.4,286047002.0,N
1507193015.3,286047000.0,N
1507193035.1,286047001.2,N
1507193055.8,286047000.4,N
1507193075.7,286047005.9,Y
1507193095.5,286047004.1,P
1507193115.3,286047005.6,P
1507193135.2,286047005.2,N
1507193155.9,286047001.4,N
1507193175.7,286047003.1,N
1507193195.6,286047002.9,N
1507193215.4,286047005.6,Y
1507193235.2,286046995.8,P
1507193255.1,286046995.1,N
1507193256.0,286046995.1,N
1507193275.8,286046996.9,N
1507193295.6,286046999.4,N
1507193315.5,286047000.8,N
1507193335.3,286047000.8,N
1507193355.1,286046998.4,N
1507193375.9,286047000.1,N
1507193395.7,286046999.3,N
1507193415.5,286046997.5,N
1507193435.3,286046995.4,N
1507193455.2,286046996.3,N
1507193475.9,286046993.5,N
1507193495.7,286046999.5,N
1507193515.6,286046996.6,N
1507193535.4,286046997.6,N
1507193555.2,286046999.8,N
1507193575.1,286047000.3,N
1507193576.0,286047000.3,N
1507193595.8,286047000.2,N
1507193615.6,286046996.9,N
1507193635.5,286046996.7,N
1507193655.3,286046998.4,N
1507193675.1,286046995.8,N
1507193695.8,286046996.6,N
1507193715.7,286047001.4,N
1507193735.5,286047000.1,N
1507193755.3,286047002.6,N
1507193775.2,286046997.3,N
1507193795.0,286046999.5,N
1507193795.9,286046999.5,N
1507193815.7,286046998.3,N
1507193835.6,286046999.7,N
1507193855.4,286047001.5,N
1507193875.2,286047000.0,N
1507193895.1,286046996.4,N
1507193896.0,286046996.4,N
1507193915.8,286046995.4,N
1507193935.6,286046994.5,N
1507193955.5,286046992.0,Y
1507193975.3,286046994.3,P
1507193995.1,286046993.1,P
